Вернуться в каталог

FENGYUN 1C DEB

АктивенPO
NORAD 38798·DEBRIS·🇨🇳 China

Запущен May 10, 1999 с Taiyuan Satellite Launch Center

Loading…

Ближайшие Пролёты (ближайшие 24 часа)

TLE

УстаревающийSource: Space-Track

Эпоха: Sep 6, 2026, 00:17 UTC

1 38798U 99025EUN 26249.01207672  .00000351  00000-0  52490-3 0  9990
2 38798  98.8255 341.4546 0410027 160.7230 200.9933 13.29242310222856

Отслеживайте FENGYUN 1C DEB в реальном времени с AllMySat

Download on the App Store